WE3C Weather Reports


Display with metric or nautical units.
time (UTC)temp
F
wind
direction
speed
MPH
gust
MPH
rain 1hr
in
rain 24hr
in
rain mn
in
humidity
%
barometer
mb
20260905054523 69 12 0.0 0.0 0.00 0.00 0.00 82 1016.0
20260905053123 70 355 0.0 0.0 0.00 0.00 0.00 82 1016.1
20260905051506 70 338 0.0 0.0 0.00 0.00 0.00 82 1016.0
20260905050002 70 338 0.0 0.0 0.00 0.00 0.00 82 1016.3
20260905044601 70 338 0.0 0.0 0.00 0.00 0.00 82 1016.4
20260905043056 71 333 0.0 0.0 0.00 0.00 0.00 82 1016.3
20260905041555 71 325 0.0 0.0 0.00 0.00 0.00 82 1016.4
20260905040056 71 325 0.0 0.0 0.00 0.00 0.00 82 1016.3
20260905034556 72 325 0.0 0.0 0.00 0.00 0.00 82 1016.4
20260905033055 72 360 0.0 0.0 0.00 0.00 0.00 82 1016.7
20260905031530 72 327 0.0 0.0 0.00 0.00 0.00 82 1016.7
20260905030026 72 5 0.0 0.0 0.00 0.00 0.00 82 1016.3
20260905024522 73 19 0.0 0.0 0.00 0.00 0.00 82 1016.2
20260905023037 73 10 0.0 0.0 0.00 0.00 0.00 82 1016.1
20260905021516 73 11 0.0 0.0 0.00 0.00 0.00 81 1015.9
20260905020012 73 355 0.0 0.0 0.00 0.00 0.00 81 1016.0
20260905014504 73 340 0.0 0.0 0.00 0.00 0.00 81 1016.2
20260905013059 73 340 0.0 0.0 0.00 0.00 0.00 81 1016.3
20260905011559 73 340 0.0 0.0 0.00 0.00 0.00 81 1016.3
20260905010050 73 340 0.0 0.0 0.00 0.00 0.00 81 1016.3
20260905004546 73 339 0.0 0.0 0.00 0.00 0.00 81 1016.4
20260905003041 74 338 0.0 0.0 0.00 0.00 0.00 81 1016.4
20260905001536 74 338 0.0 0.0 0.00 0.00 0.00 81 1016.1
20260905000009 74 336 0.0 0.0 0.00 0.00 0.00 81 1016.1
20260904234507 74 338 0.0 0.0 0.00 0.00 0.00 80 1015.7
20260904233100 74 339 0.0 0.0 0.00 0.00 0.00 80 1015.7
20260904231559 75 339 0.0 0.0 0.00 0.00 0.00 81 1015.7
20260904230051 75 338 0.0 0.0 0.00 0.00 0.00 80 1015.7
20260904224548 76 338 0.0 0.0 0.00 0.00 0.00 80 1015.8
20260904223044 76 338 0.0 0.0 0.00 0.00 0.00 79 1016.0
20260904221538 76 360 0.0 0.0 0.00 0.00 0.00 79 1016.2
20260904214530 77 360 0.0 0.0 0.00 0.00 0.00 78 1016.2
20260904213031 78 322 0.0 0.0 0.00 0.00 0.00 78 1016.3
20260904211527 78 321 0.0 0.0 0.00 0.00 0.00 76 1016.3
20260904210034 78 321 0.0 0.0 0.00 0.00 0.00 77 1016.2
20260904204524 78 321 0.0 0.0 0.00 0.00 0.00 75 1016.2
20260904203125 79 342 0.0 0.0 0.00 0.00 0.00 74 1016.1
20260904201522 80 287 0.0 0.0 0.00 0.00 0.00 75 1015.8
20260904200018 79 309 0.0 0.0 0.00 0.00 0.00 74 1016.3
20260904194535 80 308 0.0 0.0 0.00 0.00 0.00 72 1016.4
20260904193010 81 360 0.0 0.0 0.00 0.00 0.00 70 1016.6
20260904191517 82 360 0.0 0.0 0.00 0.00 0.00 69 1016.9
20260904190008 82 288 0.0 0.0 0.00 0.00 0.00 67 1017.0
20260904184506 82 271 0.0 0.0 0.00 0.00 0.00 71 1017.2
20260904183005 80 281 0.0 0.0 0.00 0.00 0.00 75 1017.4
20260904181504 79 360 0.0 0.0 0.00 0.00 0.00 73 1017.5
20260904180004 79 360 0.0 0.0 0.00 0.00 0.00 74 1017.5
20260904174503 79 360 0.0 0.0 0.00 0.00 0.00 75 1017.7
20260904173058 79 302 0.0 0.0 0.00 0.00 0.00 74 1017.5
20260904171554 81 261 0.0 0.0 0.00 0.00 0.00 72 1017.5
20260904170052 81 360 0.0 0.0 0.00 0.00 0.00 70 1017.4
20260904164549 80 329 0.0 0.0 0.00 0.00 0.00 73 1017.7
20260904163055 79 306 0.0 0.0 0.00 0.00 0.00 74 1017.8
20260904161545 79 340 0.0 0.0 0.00 0.00 0.00 75 1017.7
20260904160042 79 360 0.0 0.0 0.00 0.00 0.00 75 1017.8
20260904154541 78 315 0.0 0.0 0.00 0.00 0.00 77 1017.8
20260904153045 77 331 0.0 0.0 0.00 0.00 0.00 78 1018.0
20260904151537 76 323 0.0 0.0 0.00 0.00 0.00 79 1018.0
20260904150037 75 325 0.0 0.0 0.00 0.00 0.00 81 1017.7
20260904144535 75 360 0.0 0.0 0.00 0.00 0.00 81 1017.9
20260904143037 74 311 0.0 0.0 0.00 0.00 0.00 81 1017.8
20260904141532 73 342 0.0 0.0 0.00 0.00 0.00 82 1017.7
20260904140039 72 336 0.0 0.0 0.00 0.00 0.00 82 1017.6
20260904134531 71 360 0.0 0.0 0.00 0.00 0.00 81 1017.6
20260904133031 71 341 0.0 0.0 0.00 0.00 0.00 81 1017.8
20260904131531 70 360 0.0 0.0 0.00 0.00 0.00 80 1017.9
20260904130028 70 292 0.0 0.0 0.00 0.00 0.00 79 1018.0
20260904124529 69 302 0.0 0.0 0.00 0.00 0.00 79 1018.2
20260904123028 69 360 0.0 0.0 0.00 0.00 0.00 79 1018.1
20260904121527 69 315 0.0 0.0 0.00 0.00 0.00 79 1017.9
20260904120027 69 346 0.0 0.0 0.00 0.00 0.00 79 1018.1
20260904114525 69 333 0.0 0.0 0.00 0.00 0.00 79 1017.9
20260904113029 69 335 0.0 0.0 0.00 0.00 0.00 79 1017.8
20260904111527 69 321 0.0 0.0 0.00 0.00 0.00 79 1017.7
20260904110035 69 334 0.0 0.0 0.00 0.00 0.00 79 1017.6
20260904104523 69 290 0.0 0.0 0.00 0.00 0.00 79 1017.4
20260904103022 69 360 0.0 0.0 0.00 0.00 0.00 79 1017.1
20260904101523 69 360 0.0 0.0 0.00 0.00 0.00 79 1017.0
20260904100020 69 360 0.0 0.0 0.00 0.00 0.00 79 1016.9
20260904094521 69 292 0.0 0.0 0.00 0.00 0.00 79 1017.1
20260904093019 69 284 0.0 0.0 0.00 0.00 0.00 79 1017.3
20260904091521 69 291 0.0 0.0 0.00 0.00 0.00 79 1017.3
20260904090016 69 360 0.0 0.0 0.00 0.00 0.00 80 1017.3
20260904084519 70 251 0.0 0.0 0.00 0.00 0.00 80 1017.3
20260904083013 70 274 0.0 0.0 0.00 0.00 0.00 79 1017.2
20260904081511 71 243 0.0 0.0 0.00 0.00 0.00 79 1017.3
20260904080009 71 360 0.0 0.0 0.00 0.00 0.00 79 1017.1
20260904074514 71 235 0.0 0.0 0.00 0.00 0.00 79 1017.3
20260904073012 71 245 0.0 0.0 0.00 0.00 0.00 79 1017.0
20260904071510 71 242 0.0 0.0 0.00 0.00 0.00 79 1016.9
20260904070023 71 241 0.0 0.0 0.00 0.00 0.00 79 1016.4
20260904064506 71 250 0.0 0.0 0.00 0.00 0.00 79 1016.2
20260904063011 72 249 0.0 0.0 0.00 0.00 0.00 79 1016.1
20260904061503 72 255 0.0 0.0 0.00 0.00 0.00 79 1016.2
20260904060101 72 267 0.0 0.0 0.00 0.00 0.00 79 1016.5